Weather History for Farmington, MO

Change the Weather History Date:

Saturday, March 9, 2013

  Actual Average Record
Temperature  
Mean Temperature 56 °F -  
Max Temperature 69 °F 49 °F 73 °F (2007)
Min Temperature 44 °F 30 °F 21 °F (1998)
Degree Days  
Heating Degree Days 8    
Growing Degree Days 6 (Base 50)    
Moisture  
Dew Point 31 °F    
Average Humidity 41    
Maximum Humidity 55    
Minimum Humidity 25    
Precipitation  
Precipitation 0.00 in - - ()
Sea Level Pressure  
Sea Level Pressure 30.02 in    
Wind  
Wind Speed 10 mph (SSE)    
Max Wind Speed 26 mph    
Max Gust Speed 34 mph    
Visibility 10 miles    
Events      
Averages and records for this station are not official NWS values.
T = Trace of Precipitation, MM = Missing Value Source: NWS Daily Summary

Daily Weather History Graph

Daily Weather History Graph

Search for Another Location

Airport:

Trip Planner

Search our weather history database for the weather conditions in past years. The results will help you decide how hot, cold, wet, or windy it might be!

Date:

Astronomy

Mar. 09, 2013 Rise Set
Actual Time 6:21 AM CST 6:03 PM CST
Civil Twilight 5:55 AM CST 6:29 PM CST
Nautical Twilight 5:24 AM CST 7:00 PM CST
Astronomical Twilight 4:54 AM CST 7:30 PM CST
Moon 4:43 AM CST (3/9) 4:07 PM CST (3/9)
Length of Visible Light 12h 34m
Length of Day
11h 42m
Waning Crescent, 5% of the Moon is Illuminated
Mar 9
Waning Crescent
Mar 11
New
Mar 19
First Quarter
Mar 27
Full
Apr 2
Last Quarter

Hourly Weather History & Observations

Time (CST) Temp. Windchill Dew Point Humidity Pressure Visibility Wind Dir Wind Speed Gust Speed Precip Events Conditions
12:15 AM 46.4 °F 44.3 °F 26.6 °F 46% 30.20 in 10.0 mi SE 4.6 mph - N/A   Clear
12:35 AM 44.6 °F 40.7 °F 26.6 °F 49% 30.20 in 10.0 mi SE 6.9 mph - N/A   Clear
12:55 AM 44.6 °F 41.4 °F 26.6 °F 49% 30.19 in 10.0 mi SE 5.8 mph - N/A   Clear
1:15 AM 44.6 °F 40.2 °F 26.6 °F 49% 30.18 in 10.0 mi SE 8.1 mph - N/A   Clear
1:35 AM 44.6 °F 40.7 °F 26.6 °F 49% 30.17 in 10.0 mi SE 6.9 mph - N/A   Clear
1:55 AM 44.6 °F 40.7 °F 24.8 °F 46% 30.17 in 10.0 mi SE 6.9 mph - N/A   Clear
2:15 AM 44.6 °F 41.4 °F 24.8 °F 46% 30.17 in 10.0 mi SE 5.8 mph - N/A   Scattered Clouds
2:35 AM 44.6 °F 41.4 °F 24.8 °F 46% 30.15 in 10.0 mi SE 5.8 mph - N/A   Mostly Cloudy
2:55 AM 44.6 °F 40.7 °F 26.6 °F 49% 30.14 in 10.0 mi SSE 6.9 mph - N/A   Mostly Cloudy
3:15 AM 44.6 °F 40.2 °F 26.6 °F 49% 30.14 in 10.0 mi SSE 8.1 mph - N/A   Mostly Cloudy
3:35 AM 44.6 °F 41.4 °F 26.6 °F 49% 30.14 in 10.0 mi SSE 5.8 mph - N/A   Mostly Cloudy
3:55 AM 44.6 °F 39.7 °F 26.6 °F 49% 30.13 in 10.0 mi SSE 9.2 mph - N/A   Overcast
4:15 AM 44.6 °F 42.2 °F 26.6 °F 49% 30.13 in 10.0 mi SE 4.6 mph - N/A   Overcast
4:35 AM 44.6 °F 40.7 °F 26.6 °F 49% 30.13 in 10.0 mi SSE 6.9 mph - N/A   Overcast
4:55 AM 44.6 °F 40.2 °F 26.6 °F 49% 30.14 in 10.0 mi SSE 8.1 mph - N/A   Overcast
5:15 AM 44.6 °F 41.4 °F 26.6 °F 49% 30.14 in 10.0 mi SSE 5.8 mph - N/A   Overcast
5:35 AM 44.6 °F 40.7 °F 26.6 °F 49% 30.14 in 10.0 mi SSE 6.9 mph - N/A   Overcast
5:55 AM 44.6 °F 40.7 °F 26.6 °F 49% 30.14 in 10.0 mi SSE 6.9 mph - N/A   Overcast
6:15 AM 44.6 °F 41.4 °F 26.6 °F 49% 30.14 in 10.0 mi SSE 5.8 mph - N/A   Overcast
6:35 AM 44.6 °F 39.7 °F 26.6 °F 49% 30.12 in 10.0 mi ESE 9.2 mph - N/A   Overcast
6:55 AM 44.6 °F 40.7 °F 26.6 °F 49% 30.13 in 10.0 mi SE 6.9 mph - N/A   Mostly Cloudy
7:15 AM 44.6 °F 41.4 °F 26.6 °F 49% 30.13 in 10.0 mi SSE 5.8 mph - N/A   Overcast
7:35 AM 44.6 °F 39.2 °F 26.6 °F 49% 30.13 in 10.0 mi SSE 10.4 mph - N/A   Overcast
7:55 AM 44.6 °F 39.7 °F 26.6 °F 49% 30.13 in 10.0 mi SSE 9.2 mph - N/A   Overcast
8:15 AM 46.4 °F 42.4 °F 28.4 °F 50% 30.13 in 10.0 mi SSE 8.1 mph - N/A   Overcast
8:35 AM 46.4 °F 42.4 °F 28.4 °F 50% 30.12 in 10.0 mi SE 8.1 mph - N/A   Overcast
8:55 AM 46.4 °F 42.9 °F 28.4 °F 50% 30.12 in 10.0 mi SE 6.9 mph - N/A   Overcast
9:15 AM 46.4 °F 44.3 °F 28.4 °F 50% 30.12 in 10.0 mi SSE 4.6 mph - N/A   Overcast
9:35 AM 48.2 °F - 28.4 °F 46% 30.11 in 10.0 mi SSE 9.2 mph - N/A   Overcast
9:55 AM 50.0 °F - 32.0 °F 50% 30.09 in 10.0 mi SE 9.2 mph - N/A   Mostly Cloudy
10:15 AM 53.6 °F - 32.0 °F 44% 30.08 in 10.0 mi SE 9.2 mph - N/A   Mostly Cloudy
10:35 AM 53.6 °F - 30.2 °F 41% 30.07 in 10.0 mi SE 15.0 mph - N/A   Scattered Clouds
10:55 AM 55.4 °F - 33.8 °F 44% 30.07 in 10.0 mi SSE 12.7 mph 20.7 mph N/A   Scattered Clouds
11:15 AM 57.2 °F - 33.8 °F 41% 30.06 in 10.0 mi SSE 11.5 mph 19.6 mph N/A   Overcast
11:35 AM 59.0 °F - 33.8 °F 39% 30.05 in 10.0 mi SSE 11.5 mph 18.4 mph N/A   Scattered Clouds
11:55 AM 62.6 °F - 33.8 °F 34% 30.04 in 10.0 mi South 17.3 mph 20.7 mph N/A   Clear
12:15 PM 62.6 °F - 33.8 °F 34% 30.02 in 10.0 mi South 16.1 mph - N/A   Clear
12:35 PM 64.4 °F - 33.8 °F 32% 30.00 in 10.0 mi South 19.6 mph 25.3 mph N/A   Clear
12:55 PM 66.2 °F - 35.6 °F 32% 29.98 in 10.0 mi South 17.3 mph 29.9 mph N/A   Clear
1:15 PM 68.0 °F - 35.6 °F 30% 29.97 in 10.0 mi South 19.6 mph 29.9 mph N/A   Clear
1:35 PM 66.2 °F - 32.0 °F 28% 29.95 in 10.0 mi South 20.7 mph 31.1 mph N/A   Clear
1:55 PM 68.0 °F - 32.0 °F 26% 29.94 in 10.0 mi SSE 20.7 mph 29.9 mph N/A   Clear
2:15 PM 68.0 °F - 33.8 °F 28% 29.93 in 10.0 mi South 18.4 mph 26.5 mph N/A   Clear
2:35 PM 68.0 °F - 32.0 °F 26% 29.92 in 10.0 mi South 20.7 mph 32.2 mph N/A   Clear
2:55 PM 69.8 °F - 33.8 °F 27% 29.91 in 10.0 mi South 20.7 mph 27.6 mph N/A   Clear
3:15 PM 69.8 °F - 32.0 °F 25% 29.90 in 10.0 mi South 26.5 mph 34.5 mph N/A   Clear
3:35 PM 69.8 °F - 33.8 °F 27% 29.90 in 10.0 mi South 20.7 mph 27.6 mph N/A   Clear
3:55 PM 69.8 °F - 33.8 °F 27% 29.90 in 10.0 mi South 13.8 mph 26.5 mph N/A   Clear
4:15 PM 69.8 °F - 32.0 °F 25% 29.89 in 10.0 mi SSE 18.4 mph 27.6 mph N/A   Partly Cloudy
4:35 PM 66.2 °F - 33.8 °F 30% 29.88 in 10.0 mi SSE 15.0 mph 23.0 mph N/A   Mostly Cloudy
4:55 PM 66.2 °F - 32.0 °F 28% 29.89 in 10.0 mi South 15.0 mph 25.3 mph N/A   Scattered Clouds
5:15 PM 64.4 °F - 33.8 °F 32% 29.89 in 10.0 mi SSE 15.0 mph 24.2 mph N/A   Scattered Clouds
5:35 PM 64.4 °F - 33.8 °F 32% 29.89 in 10.0 mi SSE 18.4 mph 29.9 mph N/A   Partly Cloudy
5:55 PM 62.6 °F - 33.8 °F 34% 29.89 in 10.0 mi SSE 16.1 mph 19.6 mph N/A   Clear
6:15 PM 62.6 °F - 33.8 °F 34% 29.89 in 10.0 mi South 16.1 mph 27.6 mph N/A   Clear
6:35 PM 60.8 °F - 33.8 °F 36% 29.89 in 10.0 mi SSE 16.1 mph 23.0 mph N/A   Clear
6:55 PM 60.8 °F - 33.8 °F 36% 29.89 in 10.0 mi South 15.0 mph - N/A   Clear
7:15 PM 60.8 °F - 33.8 °F 36% 29.89 in 10.0 mi South 16.1 mph 20.7 mph N/A   Clear
7:35 PM 60.8 °F - 30.2 °F 31% 29.89 in 10.0 mi South 20.7 mph 24.2 mph N/A   Scattered Clouds
7:55 PM 60.8 °F - 30.2 °F 31% 29.88 in 10.0 mi SSE 17.3 mph 26.5 mph N/A   Overcast
8:15 PM 60.8 °F - 30.2 °F 31% 29.87 in 10.0 mi SSE 19.6 mph 27.6 mph N/A   Overcast
8:35 PM 60.8 °F - 30.2 °F 31% 29.87 in 10.0 mi SSE 19.6 mph 28.8 mph N/A   Partly Cloudy
8:55 PM 60.8 °F - 30.2 °F 31% 29.88 in 10.0 mi SSE 15.0 mph 21.9 mph N/A   Partly Cloudy
9:15 PM 59.0 °F - 32.0 °F 36% 29.89 in 10.0 mi South 16.1 mph 23.0 mph N/A   Mostly Cloudy
9:35 PM 59.0 °F - 32.0 °F 36% 29.89 in 10.0 mi South 15.0 mph 25.3 mph N/A   Mostly Cloudy
9:55 PM 59.0 °F - 32.0 °F 36% 29.89 in 10.0 mi South 16.1 mph 23.0 mph N/A   Mostly Cloudy
10:15 PM 59.0 °F - 35.6 °F 42% 29.88 in 10.0 mi South 15.0 mph 20.7 mph N/A   Scattered Clouds
10:35 PM 59.0 °F - 37.4 °F 45% 29.88 in 10.0 mi South 15.0 mph 19.6 mph N/A   Partly Cloudy
10:55 PM 59.0 °F - 41.0 °F 51% 29.87 in 10.0 mi SSE 12.7 mph 20.7 mph N/A   Partly Cloudy
11:15 PM 59.0 °F - 42.8 °F 55% 29.86 in 10.0 mi South 13.8 mph 21.9 mph N/A   Mostly Cloudy
11:35 PM 59.0 °F - 39.2 °F 48% 29.85 in 10.0 mi South 13.8 mph 24.2 mph N/A   Mostly Cloudy
11:55 PM 59.0 °F - 37.4 °F 45% 29.85 in 10.0 mi South 13.8 mph 19.6 mph N/A   Mostly Cloudy